SCP
-0 -0 -0 -0 -0 -0 -0 -0 -0 -0 -0 -0 -0 -0 -0 -0 -0 -0 -0 -0 -0 -0 -0 -0 -0 -0 -0 -0 -0 -0 -0 -0 -0 -0 -0 -0 -0 -0 -0 -0 -0 0 -0
-0 -0 -0 -0 -0 -0 -0 -0 -0 -0 -0 -0 -0 -0 -0 -0 -0 -0 -0 -0 -0 -0 -0 -0 -0 -0 -0 -0 -0 -0 -0 -0 -0 -0 -0 -0 -0 -0 -0 -0 0 0 -0
-0 -0 -0 -0 -0 -0 -0 -0 -0 -0 -0 -0 -0 -0 -0 -0 -0 -0 -0 -0 -0 -0 -0 -0 -0 -0 -0 -0 -0 -0 -0 -0 -0 -0 -0 0 0 0 -0 -0 0 0 0
-0 -0 -0 -0 -0 -0 -0 -0 -0 -0 -0 -0 -0 -0 -0 -0 -0 -0 -0 0 -0 -0 -0 -0 -0 -0 -0 -0 -0 0 0 0 0 0 0 0 0 0 0 0 0 0 0
-0 -0 -0 -0 -0 -0 -0 -0 -0 -0 -0 -0 -0 -0 -0 -0 -0 -0 -0 0 0 0 0 0 0 0 0 0 0 0 0 0 0 0 0 0 0 0 0 0 0 0 0
-0 -0 -0 -0 -0 -0 -0 -0 -0 -0 -0 -0 -0 -0 -0 0 0 0 0 0 0 0 0 0 0 0 0 0 0 0 0 0 0 0 0 0 0 0 0 0 0 0 0
0 0 0 -0 -0 -0 -0 -0 -0 -0 -0 -0 -0 -0 0 0 0 0 0 0 0 0 0 0 0 0 0 0 0 0 0 0 0 0 0 0 0 0 0 0 0 0 0
0 0 0 0 0 0 -0 -0 -0 0 0 0 0 0 -0 0 0 0 0 0 0 0 0 0 0 0 0 0 0 0 0 0 0 0 0 0 0 0 0 0 0 0 0
0 0 0 0 0 0 0 0 0 0 0 0 0 0 0 0 0 0 0 0 0 0 0 0 0 0 0 0 0 0 0 0 0 0 0 0 0 0 0 0 -0 0 0
0 0 0 0 0 0 0 0 0 0 0 0 0 0 0 0 0 0 0 0 0 0 0 0 0 0 0 0 0 0 0 0 0 0 0 0 0 0 0 -0 0 -0 0
0 0 0 0 0 0 0 0 0 0 0 0 0 0 0 0 0 0 0 0 0 0 0 0 0 0 0 0 0 0 0 0 0 0 0 0 0 0 0 0 0 0 -0
0 0 0 0 0 0 0 0 0 0 0 0 0 0 0 0 0 0 0 0 0 0 0 0 0 0 0 0 0 0 0 0 0 0 0 0 0 0 0 0 0 0 -0
0 0 0 0 0 0 0 0 0 0 0 0 0 0 0 0 0 0 0 0 0 0 0 0 0 0 0 0 0 0 0 0 0 0 0 0 0 0 0 0 0 0 0
0 0 0 0 0 0 0 0 0 0 0 0 0 0 0 0 0 0 0 0 0 0 0 0 0 0 0 0 0 0 0 0 0 0 0 0 0 0 0 0 0 0 0
0 0 0 0 0 0 0 0 0 0 0 0 0 0 0 0 0 0 0 0 0 0 0 0 0 0 0 0 0 0 0 0 0 0 0 0 0 0 0 0 0 0 0
0 0 0 0 0 0 0 0 0 0 0 0 0 0 0 0 0 0 0 0 0 0 0 0 0 0 0 0 0 0 0 0 0 0 0 0 0 0 0 0 0 0 0
0 0 0 0 0 0 0 0 0 0 0 0 0 0 0 0 0 0 0 0 0 0 0 0 0 0 0 0 0 0 0 0 0 0 0 0 0 0 0 0 0 0 0
0 0 0 0 0 0 0 0 0 0 0 0 0 0 0 0 0 0 0 0 0 0 0 0 0 0 0 0 0 0 0 0 0 0 0 0 0 0 0 0 0 0 0
0 0 0 0 0 0 0 0 0 0 0 0 0 0 0 0 0 0 0 0 0 0 0 0 0 0 0 0 0 0 0 0 0 0 0 0 0 0 0 0 0 0 0
0 0 0 0 0 0 0 0 0 0 0 0 0 0 0 0 0 0 0 0 0 0 0 0 0 0 0 0 0 0 0 0 0 0 0 0 0 0 0 0 0 0 0
0 0 0 0 0 0 0 0 0 0 0 0 0 0 0 0 0 0 0 0 0 0 0 0 0 0 0 0 0 0 0 0 0 0 0 0 0 0 0 0 0 0 0
0 0 0 0 0 0 0 0 0 0 0 0 0 0 0 0 0 0 0 0 0 0 0 0 0 0 0 0 0 0 0 0 0 0 0 0 0 0 0 0 0 0 0
0 0 0 0 0 0 0 0 0 0 0 0 0 0 0 0 0 0 0 0 0 0 0 0 0 0 0 0 0 0 0 0 0 0 0 0 0 0 0 0 0 0 0
0 0 0 0 0 0 0 0 0 0 0 0 0 0 0 0 0 0 0 0 0 0 0 0 0 0 0 0 0 0 0 0 0 0 0 0 0 0 0 0 0 0 0
0 0 0 0 0 0 0 0 0 0 0 0 0 0 0 0 0 0 0 0 0 0 0 0 0 0 0 0 0 0 0 0 0 0 0 0 0 0 0 0 0 0 0
0 0 0 0 0 0 0 0 0 0 0 0 0 0 0 0 0 0 0 0 0 0 0 0 0 0 0 0 0 0 0 0 0 0 0 0 0 0 0 0 0 0 0
Wind_Speed_500mb
49 58 55 49 47 44 42 41 39 37 36 34 30 25 20 16 12 10 9 9 10 11 10 8 12 13 13 14 14 13 13 15 17 19 21 18 15 13 15 14 11 10 14
59 59 56 50 47 44 43 41 38 35 33 32 25 19 15 13 11 9 10 11 17 19 20 20 13 15 16 15 16 15 16 15 17 16 15 16 11 9 5 6 6 7 10
51 61 57 52 49 46 42 40 39 34 32 28 22 16 13 11 10 11 15 19 20 18 20 21 23 16 14 14 15 17 17 17 17 16 15 12 11 4 2 1 3 2 5
50 62 59 54 50 46 43 41 38 35 32 25 18 14 11 8 9 12 17 24 18 14 16 18 18 20 16 8 8 12 17 19 19 14 14 13 13 8 4 4 6 6 4
52 60 58 55 51 47 44 42 39 36 30 22 16 12 8 7 9 12 15 16 15 15 17 18 18 16 16 14 10 6 15 21 23 19 11 10 10 15 11 11 12 12 9
54 58 57 54 51 49 45 42 40 37 30 22 16 12 9 9 10 12 12 12 12 14 15 16 16 14 12 13 13 8 5 18 24 25 21 17 17 14 15 19 19 17 15
56 56 56 53 50 48 46 42 40 35 29 24 19 14 12 12 12 14 12 10 9 9 9 11 13 14 13 10 9 8 10 3 17 26 27 25 23 20 23 19 19 19 17
56 56 55 53 50 48 46 44 40 36 31 25 21 19 17 15 14 15 14 11 8 5 5 8 10 11 12 12 7 6 4 6 4 15 28 24 20 17 25 26 20 19 21
49 54 55 54 49 46 45 42 41 35 29 26 25 21 18 16 14 13 10 9 7 4 2 2 5 7 8 9 9 7 7 5 5 3 21 23 21 17 27 27 27 25 22
44 47 54 54 51 49 46 41 37 34 30 27 25 22 18 16 13 12 10 9 7 5 1 4 7 9 10 11 8 7 9 6 7 9 13 24 19 13 28 33 31 32 30
43 41 46 52 52 49 47 43 38 35 32 30 27 23 20 17 14 9 7 9 6 3 6 9 14 17 17 14 15 15 14 8 8 8 13 13 18 18 17 36 39 37 35
51 47 40 48 52 50 47 44 41 38 37 33 28 24 22 20 18 15 15 16 12 11 18 21 23 25 24 22 19 21 20 19 18 13 10 12 18 21 26 28 29 35 39
51 47 42 40 53 51 50 46 42 40 38 34 31 28 26 24 22 23 25 19 17 16 25 30 29 27 27 26 26 24 21 22 24 25 24 22 27 27 30 32 35 34 38
55 46 44 43 51 46 44 45 42 41 38 38 36 31 28 26 26 22 19 20 22 27 30 31 29 31 26 25 27 28 30 33 37 37 36 37 36 36 33 39 40 41 42
59 56 52 48 47 43 38 37 36 37 40 39 36 31 28 26 23 21 20 26 32 30 31 33 31 23 23 24 27 31 32 33 36 41 45 48 51 49 48 43 44 48 50
62 65 57 51 52 50 50 48 45 42 40 40 38 33 31 31 31 31 28 29 32 35 33 27 25 28 32 34 33 35 37 39 40 41 41 41 39 41 44 59 56 55 54
71 68 67 51 54 54 58 53 51 50 46 41 39 37 34 32 33 31 31 33 33 29 24 24 30 37 36 33 32 31 32 34 36 37 39 41 42 43 43 44 48 54 58
75 75 70 57 59 62 60 56 58 50 41 39 40 38 35 32 31 32 31 28 24 22 25 30 33 31 29 29 28 28 29 32 32 35 37 39 42 44 44 44 47 50 52
65 70 76 62 62 64 64 60 57 54 48 43 41 38 34 32 32 29 26 25 24 24 28 30 29 29 28 29 30 27 26 27 28 31 33 35 38 44 48 50 52 51 52
64 61 75 69 66 67 69 69 66 58 49 44 40 37 34 32 30 29 27 25 25 26 26 25 24 26 28 30 30 29 27 27 22 15 20 23 26 29 31 35 40 45 52
73 63 79 81 73 68 77 76 69 60 48 44 41 39 36 32 31 29 27 26 25 24 22 21 21 22 26 30 32 27 18 6 15 1 4 12 20 24 26 28 33 37 40
77 73 80 87 80 75 75 77 68 59 52 44 45 43 36 33 31 29 26 25 23 20 19 20 19 21 25 27 26 28 7 10 9 14 31 22 24 25 29 35 38 41 43
77 80 83 87 86 77 77 77 69 62 56 52 49 45 38 34 31 28 25 22 19 18 18 18 19 21 22 22 24 12 7 6 29 9 15 23 26 32 38 41 45 49 52
75 78 81 88 88 82 79 75 70 67 55 56 50 45 38 34 29 26 22 19 16 15 16 18 19 19 21 21 18 19 20 21 11 22 25 36 37 43 44 45 49 50 56
78 81 81 87 88 83 79 72 71 65 59 56 51 44 38 33 29 24 20 17 14 14 14 15 16 17 17 18 20 18 16 16 13 17 40 46 57 52 49 47 53 47 43
85 85 84 85 85 82 79 69 72 59 56 55 51 45 38 33 28 23 19 14 12 11 12 13 14 16 16 16 16 17 17 15 18 18 37 42 44 46 55 47 43 46 42
Wind_Direction_500mb
175 174 169 168 163 160 155 153 151 148 147 145 143 138 132 124 121 123 123 118 115 111 108 144 153 152 156 162 164 157 150 144 139 131 130 134 142 142 130 113 93 68 59
161 175 172 170 167 164 161 157 155 152 151 150 148 140 128 120 116 110 107 116 105 90 85 83 102 145 149 154 163 166 163 160 158 145 138 134 130 140 143 125 90 64 53
167 173 175 174 171 167 164 161 159 156 155 155 153 146 135 125 114 104 93 109 95 79 75 79 77 93 143 150 159 166 169 166 162 170 168 165 144 131 195 200 138 75 24
172 173 176 177 174 170 168 165 162 160 159 161 158 149 137 125 117 115 100 108 117 84 78 72 75 78 88 125 162 176 177 173 173 170 180 192 197 179 262 287 268 272 287
175 175 176 177 175 174 171 168 165 164 166 168 163 153 140 131 131 128 119 119 105 86 75 64 60 66 74 75 69 186 192 188 188 181 186 215 207 220 262 274 279 267 262
176 177 177 177 177 175 175 173 171 171 173 170 171 160 149 140 140 139 131 130 101 81 67 60 56 52 50 48 51 63 185 211 207 203 202 223 244 238 248 252 247 244 253
177 178 179 178 177 178 178 179 179 176 177 176 173 167 157 149 147 150 144 140 112 93 76 60 49 44 37 26 33 46 54 96 220 215 211 225 241 247 246 255 245 244 243
179 178 179 179 179 181 183 183 184 182 182 180 177 170 168 162 158 164 165 161 150 131 78 55 43 31 22 13 357 359 358 29 23 220 211 220 235 250 245 250 252 245 246
184 179 180 181 183 186 185 181 183 186 187 184 181 178 177 171 166 164 167 171 162 147 121 36 16 4 356 354 354 323 329 315 345 227 213 226 249 247 238 253 256 264 256
178 183 183 184 185 186 186 188 190 190 192 189 189 189 185 178 175 173 178 183 180 180 275 338 335 331 324 314 312 307 300 290 293 277 261 240 258 259 249 253 262 267 266
183 185 191 191 190 190 191 192 195 197 197 198 198 197 195 194 193 193 207 202 197 260 311 313 313 309 299 288 281 280 279 273 284 289 265 254 258 266 262 253 261 267 267
191 190 199 201 198 195 197 198 199 200 202 204 204 204 203 209 214 197 207 195 216 284 298 292 297 295 285 278 272 271 270 268 274 279 279 239 271 277 280 271 264 272 279
199 196 198 209 206 204 203 204 206 205 206 207 208 207 208 218 227 205 205 213 230 254 278 282 290 287 282 275 271 261 256 266 269 271 265 263 271 278 273 273 278 279 281
202 201 203 202 205 206 213 211 211 213 209 212 214 215 222 224 224 207 209 226 248 274 278 283 286 287 283 277 272 268 263 260 260 258 259 264 266 266 273 273 272 275 279
204 198 199 200 205 206 206 209 209 210 215 218 219 221 218 206 204 217 240 257 264 269 275 279 281 280 286 287 281 277 274 269 265 263 262 259 256 257 262 270 270 272 276
207 204 205 210 210 208 209 209 213 216 219 219 221 216 209 219 229 231 240 251 261 270 272 270 276 284 288 287 281 276 276 275 275 273 271 270 267 263 262 251 257 262 264
212 216 217 221 209 211 209 210 213 214 218 220 214 211 215 222 228 233 245 254 258 256 254 266 282 290 291 287 284 281 278 277 277 277 275 274 273 272 270 262 260 263 265
217 219 222 217 210 210 216 208 212 213 218 218 213 217 222 226 234 243 249 248 242 244 264 282 289 290 291 290 286 286 287 286 284 279 274 271 269 268 267 267 267 265 265
218 220 219 211 207 209 207 214 213 209 213 213 215 219 225 235 242 245 243 241 245 259 277 286 288 291 291 290 296 299 299 293 285 278 274 270 266 265 264 264 264 267 267
221 214 216 208 207 208 211 205 202 195 210 206 215 222 231 239 242 242 239 241 254 270 278 282 287 294 299 302 304 309 306 298 284 278 273 270 269 268 270 272 274 272 269
220 213 211 207 207 212 206 202 199 203 203 220 221 222 230 236 239 236 239 251 264 270 273 279 289 295 299 306 313 315 318 277 304 294 353 298 272 269 271 273 275 277 275
217 214 210 209 209 213 214 206 211 204 208 224 224 224 226 230 231 237 247 256 262 267 274 283 293 302 309 315 323 329 331 299 238 274 296 274 269 271 272 278 277 277 277
211 210 208 210 211 211 212 209 202 201 201 206 215 220 221 223 231 241 247 250 254 265 276 288 298 306 311 319 325 325 324 285 303 233 269 278 271 277 276 278 277 276 275
212 212 212 209 209 211 211 209 216 205 211 221 221 217 216 222 231 237 240 245 252 263 279 293 303 308 313 319 324 318 309 293 313 303 287 295 300 305 305 292 290 286 285
213 214 213 208 208 208 211 210 212 219 216 215 212 212 214 221 225 227 229 235 251 270 287 299 306 311 313 316 318 315 307 309 313 286 299 311 320 325 326 330 331 330 327
209 211 212 208 207 211 218 216 209 211 209 211 210 209 212 215 216 216 221 234 251 271 284 297 311 314 312 309 309 315 324 328 318 305 300 309 312 323 324 329 332 329 329
Wind_Speed_850mb
49 58 55 49 47 44 42 41 39 37 36 34 30 25 20 16 12 10 9 9 10 11 10 8 12 13 13 14 14 13 13 15 17 19 21 18 15 13 15 14 11 10 14
59 59 56 50 47 44 43 41 38 35 33 32 25 19 15 13 11 9 10 11 17 19 20 20 13 15 16 15 16 15 16 15 17 16 15 16 11 9 5 6 6 7 10
51 61 57 52 49 46 42 40 39 34 32 28 22 16 13 11 10 11 15 19 20 18 20 21 23 16 14 14 15 17 17 17 17 16 15 12 11 4 2 1 3 2 5
50 62 59 54 50 46 43 41 38 35 32 25 18 14 11 8 9 12 17 24 18 14 16 18 18 20 16 8 8 12 17 19 19 14 14 13 13 8 4 4 6 6 4
52 60 58 55 51 47 44 42 39 36 30 22 16 12 8 7 9 12 15 16 15 15 17 18 18 16 16 14 10 6 15 21 23 19 11 10 10 15 11 11 12 12 9
54 58 57 54 51 49 45 42 40 37 30 22 16 12 9 9 10 12 12 12 12 14 15 16 16 14 12 13 13 8 5 18 24 25 21 17 17 14 15 19 19 17 15
56 56 56 53 50 48 46 42 40 35 29 24 19 14 12 12 12 14 12 10 9 9 9 11 13 14 13 10 9 8 10 3 17 26 27 25 23 20 23 19 19 19 17
56 56 55 53 50 48 46 44 40 36 31 25 21 19 17 15 14 15 14 11 8 5 5 8 10 11 12 12 7 6 4 6 4 15 28 24 20 17 25 26 20 19 21
49 54 55 54 49 46 45 42 41 35 29 26 25 21 18 16 14 13 10 9 7 4 2 2 5 7 8 9 9 7 7 5 5 3 21 23 21 17 27 27 27 25 22
44 47 54 54 51 49 46 41 37 34 30 27 25 22 18 16 13 12 10 9 7 5 1 4 7 9 10 11 8 7 9 6 7 9 13 24 19 13 28 33 31 32 30
43 41 46 52 52 49 47 43 38 35 32 30 27 23 20 17 14 9 7 9 6 3 6 9 14 17 17 14 15 15 14 8 8 8 13 13 18 18 17 36 39 37 35
51 47 40 48 52 50 47 44 41 38 37 33 28 24 22 20 18 15 15 16 12 11 18 21 23 25 24 22 19 21 20 19 18 13 10 12 18 21 26 28 29 35 39
51 47 42 40 53 51 50 46 42 40 38 34 31 28 26 24 22 23 25 19 17 16 25 30 29 27 27 26 26 24 21 22 24 25 24 22 27 27 30 32 35 34 38
55 46 44 43 51 46 44 45 42 41 38 38 36 31 28 26 26 22 19 20 22 27 30 31 29 31 26 25 27 28 30 33 37 37 36 37 36 36 33 39 40 41 42
59 56 52 48 47 43 38 37 36 37 40 39 36 31 28 26 23 21 20 26 32 30 31 33 31 23 23 24 27 31 32 33 36 41 45 48 51 49 48 43 44 48 50
62 65 57 51 52 50 50 48 45 42 40 40 38 33 31 31 31 31 28 29 32 35 33 27 25 28 32 34 33 35 37 39 40 41 41 41 39 41 44 59 56 55 54
71 68 67 51 54 54 58 53 51 50 46 41 39 37 34 32 33 31 31 33 33 29 24 24 30 37 36 33 32 31 32 34 36 37 39 41 42 43 43 44 48 54 58
75 75 70 57 59 62 60 56 58 50 41 39 40 38 35 32 31 32 31 28 24 22 25 30 33 31 29 29 28 28 29 32 32 35 37 39 42 44 44 44 47 50 52
65 70 76 62 62 64 64 60 57 54 48 43 41 38 34 32 32 29 26 25 24 24 28 30 29 29 28 29 30 27 26 27 28 31 33 35 38 44 48 50 52 51 52
64 61 75 69 66 67 69 69 66 58 49 44 40 37 34 32 30 29 27 25 25 26 26 25 24 26 28 30 30 29 27 27 22 15 20 23 26 29 31 35 40 45 52
73 63 79 81 73 68 77 76 69 60 48 44 41 39 36 32 31 29 27 26 25 24 22 21 21 22 26 30 32 27 18 6 15 1 4 12 20 24 26 28 33 37 40
77 73 80 87 80 75 75 77 68 59 52 44 45 43 36 33 31 29 26 25 23 20 19 20 19 21 25 27 26 28 7 10 9 14 31 22 24 25 29 35 38 41 43
77 80 83 87 86 77 77 77 69 62 56 52 49 45 38 34 31 28 25 22 19 18 18 18 19 21 22 22 24 12 7 6 29 9 15 23 26 32 38 41 45 49 52
75 78 81 88 88 82 79 75 70 67 55 56 50 45 38 34 29 26 22 19 16 15 16 18 19 19 21 21 18 19 20 21 11 22 25 36 37 43 44 45 49 50 56
78 81 81 87 88 83 79 72 71 65 59 56 51 44 38 33 29 24 20 17 14 14 14 15 16 17 17 18 20 18 16 16 13 17 40 46 57 52 49 47 53 47 43
85 85 84 85 85 82 79 69 72 59 56 55 51 45 38 33 28 23 19 14 12 11 12 13 14 16 16 16 16 17 17 15 18 18 37 42 44 46 55 47 43 46 42
Wind_Direction_850mb
175 174 169 168 163 160 155 153 151 148 147 145 143 138 132 124 121 123 123 118 115 111 108 144 153 152 156 162 164 157 150 144 139 131 130 134 142 142 130 113 93 68 59
161 175 172 170 167 164 161 157 155 152 151 150 148 140 128 120 116 110 107 116 105 90 85 83 102 145 149 154 163 166 163 160 158 145 138 134 130 140 143 125 90 64 53
167 173 175 174 171 167 164 161 159 156 155 155 153 146 135 125 114 104 93 109 95 79 75 79 77 93 143 150 159 166 169 166 162 170 168 165 144 131 195 200 138 75 24
172 173 176 177 174 170 168 165 162 160 159 161 158 149 137 125 117 115 100 108 117 84 78 72 75 78 88 125 162 176 177 173 173 170 180 192 197 179 262 287 268 272 287
175 175 176 177 175 174 171 168 165 164 166 168 163 153 140 131 131 128 119 119 105 86 75 64 60 66 74 75 69 186 192 188 188 181 186 215 207 220 262 274 279 267 262
176 177 177 177 177 175 175 173 171 171 173 170 171 160 149 140 140 139 131 130 101 81 67 60 56 52 50 48 51 63 185 211 207 203 202 223 244 238 248 252 247 244 253
177 178 179 178 177 178 178 179 179 176 177 176 173 167 157 149 147 150 144 140 112 93 76 60 49 44 37 26 33 46 54 96 220 215 211 225 241 247 246 255 245 244 243
179 178 179 179 179 181 183 183 184 182 182 180 177 170 168 162 158 164 165 161 150 131 78 55 43 31 22 13 357 359 358 29 23 220 211 220 235 250 245 250 252 245 246
184 179 180 181 183 186 185 181 183 186 187 184 181 178 177 171 166 164 167 171 162 147 121 36 16 4 356 354 354 323 329 315 345 227 213 226 249 247 238 253 256 264 256
178 183 183 184 185 186 186 188 190 190 192 189 189 189 185 178 175 173 178 183 180 180 275 338 335 331 324 314 312 307 300 290 293 277 261 240 258 259 249 253 262 267 266
183 185 191 191 190 190 191 192 195 197 197 198 198 197 195 194 193 193 207 202 197 260 311 313 313 309 299 288 281 280 279 273 284 289 265 254 258 266 262 253 261 267 267
191 190 199 201 198 195 197 198 199 200 202 204 204 204 203 209 214 197 207 195 216 284 298 292 297 295 285 278 272 271 270 268 274 279 279 239 271 277 280 271 264 272 279
199 196 198 209 206 204 203 204 206 205 206 207 208 207 208 218 227 205 205 213 230 254 278 282 290 287 282 275 271 261 256 266 269 271 265 263 271 278 273 273 278 279 281
202 201 203 202 205 206 213 211 211 213 209 212 214 215 222 224 224 207 209 226 248 274 278 283 286 287 283 277 272 268 263 260 260 258 259 264 266 266 273 273 272 275 279
204 198 199 200 205 206 206 209 209 210 215 218 219 221 218 206 204 217 240 257 264 269 275 279 281 280 286 287 281 277 274 269 265 263 262 259 256 257 262 270 270 272 276
207 204 205 210 210 208 209 209 213 216 219 219 221 216 209 219 229 231 240 251 261 270 272 270 276 284 288 287 281 276 276 275 275 273 271 270 267 263 262 251 257 262 264
212 216 217 221 209 211 209 210 213 214 218 220 214 211 215 222 228 233 245 254 258 256 254 266 282 290 291 287 284 281 278 277 277 277 275 274 273 272 270 262 260 263 265
217 219 222 217 210 210 216 208 212 213 218 218 213 217 222 226 234 243 249 248 242 244 264 282 289 290 291 290 286 286 287 286 284 279 274 271 269 268 267 267 267 265 265
218 220 219 211 207 209 207 214 213 209 213 213 215 219 225 235 242 245 243 241 245 259 277 286 288 291 291 290 296 299 299 293 285 278 274 270 266 265 264 264 264 267 267
221 214 216 208 207 208 211 205 202 195 210 206 215 222 231 239 242 242 239 241 254 270 278 282 287 294 299 302 304 309 306 298 284 278 273 270 269 268 270 272 274 272 269
220 213 211 207 207 212 206 202 199 203 203 220 221 222 230 236 239 236 239 251 264 270 273 279 289 295 299 306 313 315 318 277 304 294 353 298 272 269 271 273 275 277 275
217 214 210 209 209 213 214 206 211 204 208 224 224 224 226 230 231 237 247 256 262 267 274 283 293 302 309 315 323 329 331 299 238 274 296 274 269 271 272 278 277 277 277
211 210 208 210 211 211 212 209 202 201 201 206 215 220 221 223 231 241 247 250 254 265 276 288 298 306 311 319 325 325 324 285 303 233 269 278 271 277 276 278 277 276 275
212 212 212 209 209 211 211 209 216 205 211 221 221 217 216 222 231 237 240 245 252 263 279 293 303 308 313 319 324 318 309 293 313 303 287 295 300 305 305 292 290 286 285
213 214 213 208 208 208 211 210 212 219 216 215 212 212 214 221 225 227 229 235 251 270 287 299 306 311 313 316 318 315 307 309 313 286 299 311 320 325 326 330 331 330 327
209 211 212 208 207 211 218 216 209 211 209 211 210 209 212 215 216 216 221 234 251 271 284 297 311 314 312 309 309 315 324 328 318 305 300 309 312 323 324 329 332 329 329